Orbital elements of BREEZE-M R/B
| Launched | 5 August 2012 |
| Flight ended | – |
| Launch site | Tyuratam Missile and Space Center, Kazakhstan (Also known as Baikonur Cosmodrome) |
| Owner | Commonwealth of Independent States (former USSR) |
| NORAD ID | 38746 |
| Date fetched |
Epoch osculation |
Inc. [°] |
Ecc. | RA asc node [hr] |
Arg Peri. [°] |
Mean anom [°] |
Mean motion [rev/day] |
Abs. mag |
| Date fetched |
Epoch osculation |
Inc. [°] |
Ecc. | RA asc node [hr] |
Arg Peri. [°] |
Mean anom [°] |
Mean motion [rev/day] |
Abs. mag |
| 2026 May 08 17:57 | 2026 May 05 09:25:06 | 49.6756 | 0.20965 | 19.3209 | 278.5720 | 58.4585 | 11.16598 | 6.500 |
| 2026 May 07 17:58 | 2026 May 05 09:25:06 | 49.6756 | 0.20965 | 19.3209 | 278.5720 | 58.4585 | 11.16598 | 6.500 |
| 2026 May 06 17:57 | 2026 May 05 09:25:06 | 49.6756 | 0.20965 | 19.3209 | 278.5720 | 58.4585 | 11.16598 | 6.500 |
| 2026 May 05 17:57 | 2026 May 05 09:25:06 | 49.6756 | 0.20965 | 19.3209 | 278.5720 | 58.4585 | 11.16598 | 6.500 |
| 2026 May 04 17:57 | 2026 Apr 30 13:24:17 | 49.6761 | 0.20971 | 20.1680 | 267.8272 | 58.4585 | 11.16598 | 6.500 |
| 2026 May 03 17:57 | 2026 Apr 30 13:24:17 | 49.6761 | 0.20971 | 20.1680 | 267.8272 | 58.4585 | 11.16598 | 6.500 |
| 2026 May 02 17:57 | 2026 Apr 30 13:24:17 | 49.6761 | 0.20971 | 20.1680 | 267.8272 | 58.4585 | 11.16598 | 6.500 |
| 2026 May 01 17:56 | 2026 Apr 30 13:24:17 | 49.6761 | 0.20971 | 20.1680 | 267.8272 | 58.4585 | 11.16598 | 6.500 |
| 2026 Apr 30 17:56 | 2026 Apr 30 13:24:17 | 49.6761 | 0.20971 | 20.1680 | 267.8272 | 58.4585 | 11.16598 | 6.500 |
| 2026 Apr 29 17:57 | 2026 Apr 24 07:00:32 | 49.6769 | 0.20975 | 21.2660 | 253.9108 | 58.4585 | 11.16598 | 6.500 |
| 2026 Apr 28 17:56 | 2026 Apr 24 07:00:32 | 49.6769 | 0.20975 | 21.2660 | 253.9108 | 58.4585 | 11.16598 | 6.500 |
| 2026 Apr 27 17:58 | 2026 Apr 24 07:00:32 | 49.6769 | 0.20975 | 21.2660 | 253.9108 | 58.4585 | 11.16598 | 6.500 |
| 2026 Apr 26 17:58 | 2026 Apr 24 07:00:32 | 49.6769 | 0.20975 | 21.2660 | 253.9108 | 58.4585 | 11.16598 | 6.500 |
| 2026 Apr 25 17:58 | 2026 Apr 24 07:00:32 | 49.6769 | 0.20975 | 21.2660 | 253.9108 | 58.4585 | 11.16598 | 6.500 |
| 2026 Apr 24 17:59 | 2026 Apr 24 07:00:32 | 49.6769 | 0.20975 | 21.2660 | 253.9108 | 58.4585 | 11.16598 | 6.500 |
| 2026 Apr 23 17:57 | 2026 Apr 19 13:08:01 | 49.6759 | 0.20981 | 22.0974 | 243.3758 | 58.4585 | 11.16598 | 6.500 |
| 2026 Apr 22 17:57 | 2026 Apr 19 13:08:01 | 49.6759 | 0.20981 | 22.0974 | 243.3758 | 58.4585 | 11.16598 | 6.500 |
| 2026 Apr 21 17:57 | 2026 Apr 19 13:08:01 | 49.6759 | 0.20981 | 22.0974 | 243.3758 | 58.4585 | 11.16598 | 6.500 |
| 2026 Apr 20 17:57 | 2026 Apr 19 13:08:01 | 49.6759 | 0.20981 | 22.0974 | 243.3758 | 58.4585 | 11.16598 | 6.500 |
| 2026 Apr 19 17:58 | 2026 Apr 19 13:08:01 | 49.6759 | 0.20981 | 22.0974 | 243.3758 | 58.4585 | 11.16598 | 6.500 |
| 2026 Apr 18 17:56 | 2026 Apr 13 00:16:55 | 49.6715 | 0.20983 | 23.2422 | 228.8598 | 58.4585 | 11.16598 | 6.500 |
| 2026 Apr 16 17:57 | 2026 Apr 13 00:16:55 | 49.6715 | 0.20983 | 23.2422 | 228.8598 | 58.4585 | 11.16598 | 6.500 |
| 2026 Apr 14 17:57 | 2026 Apr 13 00:16:55 | 49.6715 | 0.20983 | 23.2422 | 228.8598 | 58.4585 | 11.16598 | 6.500 |
| 2026 Apr 13 17:57 | 2026 Apr 13 00:16:55 | 49.6715 | 0.20983 | 23.2422 | 228.8598 | 58.4585 | 11.16598 | 6.500 |
| 2026 Apr 12 17:57 | 2026 Apr 08 10:41:52 | 49.6705 | 0.20987 | 0.0422 | 218.7253 | 58.4585 | 11.16598 | 6.500 |
| 2026 Apr 11 17:57 | 2026 Apr 08 10:41:52 | 49.6705 | 0.20987 | 0.0422 | 218.7253 | 58.4585 | 11.16598 | 6.500 |